Terminal Aerodrome Forecast
Issued by NWS

Current Version | Previous Version | Text Only | Print | Product List | Glossary On
Versions: 1 2 3 4 5 6 7 8 9 10 11 12 13 14 15 16 17 18 19 20
000
FTUS41 KPBZ 212000 AAB
TAFAGC
TAF AMD
KAGC 212027Z 2120/2218 32010G15KT P6SM -RA SCT025 OVC040
      TEMPO 2120/2123 BKN025
     FM212300 31008KT 6SM -RA BKN015
     FM220600 32005KT 5SM BR VCSH BKN008
     FM221200 33008KT P6SM BKN015 OVC025
     FM221500 33009KT P6SM BKN025=

USA.gov is the U.S. government's official web portal to all federal, state and local government web resources and services.